time_stamp(utc),avg(mph),gust(mph),direction(deg),12m_air_temp(f),sonic_u(cm/s),sonic_v(cm/s),sonic_w(cm/s),pressure,2m_air_temp(f),pyranometer(W/m^2)
"2019-11-12 00:02:54+00",5.3,13.3,,56.9,557,-1650,623,1012.43,56.2,0
"2019-11-12 00:07:54+00",2.7,9.7,,57,418,-1421,524,1012.32,56.3,0
"2019-11-12 00:12:54+00",4.0,15.0,,57.2,394,-1467,522,1012.11,56.5,0
"2019-11-12 00:17:54+00",0.7,3.7,,57.2,560,-1812,654,1012.12,56.6,0
"2019-11-12 00:22:54+00",0.6,1.6,,57.1,330,-1470,469,1012.23,56.5,0
"2019-11-12 00:27:54+00",0.0,0.0,,57.2,476,-1671,606,1012.07,56.5,0
"2019-11-12 00:32:54+00",1.7,7.7,,57.2,724,-2190,833,1011.8,56.6,0
"2019-11-12 00:37:54+00",0.0,0.0,,57.2,315,-1426,434,1011.64,56.6,0
"2019-11-12 00:42:54+00",0.0,0.0,,57.2,342,-1448,451,1011.49,56.6,0
"2019-11-12 00:47:54+00",2.5,9.5,,57.4,33,-1003,207,1011.44,56.8,0
"2019-11-12 00:52:54+00",0.7,2.7,,57.4,78,-1087,277,1011.37,56.7,0
"2019-11-12 00:57:54+00",0.6,0.6,,57.3,-27,-896,134,1011.32,56.7,0
"2019-11-12 01:02:54+00",0.0,0.0,,57.5,-98,-784,62,1011.17,56.7,0
"2019-11-12 01:07:54+00",4.5,15.5,,57.5,-109,-827,85,1011.21,56.8,0
"2019-11-12 01:12:54+00",1.4,6.4,,57.3,-43,-899,182,1011.36,56.7,0
"2019-11-12 01:17:54+00",0.0,0.0,,57.4,-65,-972,171,1011.43,56.7,0
"2019-11-12 01:22:54+00",0.0,0.0,,57.3,-161,-852,113,1011.52,56.6,0
"2019-11-12 01:27:54+00",1.1,5.1,,57.4,15,-1230,297,1011.46,56.5,0
"2019-11-12 01:32:54+00",0.8,3.8,,57.3,149,-1480,455,1011.48,56.5,0
"2019-11-12 01:37:54+00",0.0,0.0,,57.4,279,-1726,596,1011.47,56.5,0
"2019-11-12 01:42:54+00",0.0,0.0,,57.5,28,-1314,341,1011.49,56.5,0
"2019-11-12 01:47:54+00",0.0,0.0,,57.6,262,-1799,633,1011.42,56.6,0
"2019-11-12 01:52:54+00",0.5,1.5,,57.5,185,-1640,582,1011.5,56.5,0
"2019-11-12 01:57:54+00",0.5,1.5,,57.4,29,-1413,461,1011.55,56.5,0
"2019-11-12 02:02:54+00",0.7,1.7,,57.8,-302,-1053,220,1011.5,56.7,0
"2019-11-12 02:07:54+00",0.9,3.9,,57.8,-368,-930,151,1011.39,56.7,0
"2019-11-12 02:12:54+00",6.5,11.5,,57.5,-372,-706,53,1011.42,56.6,0
"2019-11-12 02:17:54+00",4.9,10.9,,57.6,-425,-663,19,1011.34,56.5,0
"2019-11-12 02:22:54+00",3.0,10.0,,57.8,-440,-701,-4,1011.24,56.6,0
"2019-11-12 02:27:54+00",0.9,4.9,,57.8,-404,-638,20,1011.16,56.7,0
"2019-11-12 02:32:54+00",0.0,0.0,,57.9,-467,-685,8,1011.13,56.8,0
"2019-11-12 02:37:54+00",0.6,1.6,,58.1,-501,-738,6,1011.09,56.9,0
"2019-11-12 02:42:54+00",0.6,0.6,,58,-487,-762,2,1010.95,56.9,0
"2019-11-12 02:47:54+00",0.6,1.6,,58.2,-535,-776,-15,1010.82,57.1,0
"2019-11-12 02:52:54+00",0.5,1.5,,58.1,-467,-719,4,1010.77,57.2,0
"2019-11-12 02:57:54+00",0.0,0.0,,58.2,-529,-694,28,1010.81,57.2,0
"2019-11-12 03:02:54+00",0.6,1.6,,58.3,-624,-708,-18,1010.77,57.3,0
"2019-11-12 03:07:54+00",0.5,1.5,,58.3,-561,-641,12,1010.84,57.3,0
"2019-11-12 03:12:54+00",0.5,1.5,,58,-522,-576,13,1010.87,57.2,0
"2019-11-12 03:17:54+00",0.0,0.0,,57.8,-539,-565,22,1010.72,57,0
"2019-11-12 03:22:54+00",0.6,1.6,,57.7,-584,-630,-2,1010.69,56.9,0
"2019-11-12 03:27:54+00",0.6,0.6,,57.7,-560,-641,14,1010.68,56.8,0
"2019-11-12 03:32:54+00",0.0,0.0,,57.7,-558,-614,6,1010.69,56.8,0
"2019-11-12 03:37:54+00",0.6,1.6,,57.6,-578,-625,20,1010.61,56.7,0
"2019-11-12 03:42:54+00",0.6,0.6,,57.6,-585,-648,27,1010.66,56.6,0
"2019-11-12 03:47:54+00",0.0,0.0,,57.6,-591,-693,28,1010.52,56.6,0
"2019-11-12 03:52:54+00",0.6,1.6,,57.5,-609,-666,-6,1010.4,56.6,0
"2019-11-12 03:57:54+00",0.6,0.6,,57.4,-569,-655,10,1010.36,56.5,0
"2019-11-12 04:02:54+00",0.6,1.6,,57.5,-573,-646,13,1010.24,56.5,0
"2019-11-12 04:07:54+00",0.5,1.5,,57.3,-513,-610,27,1010.17,56.4,0
"2019-11-12 04:12:54+00",0.8,3.8,,57.3,-498,-586,24,1010.16,56.3,0
"2019-11-12 04:17:54+00",11.5,14.5,,57.3,-491,-673,-3,1010.12,56.3,0
"2019-11-12 04:22:54+00",1.1,6.1,,57.2,-435,-575,19,1009.99,56.2,0
"2019-11-12 04:27:54+00",1.1,4.1,,57.3,-424,-599,13,1009.93,56.3,0
"2019-11-12 04:32:54+00",2.9,10.9,,57.4,-452,-674,-7,1009.88,56.3,0
"2019-11-12 04:37:54+00",0.5,1.5,,57.4,-470,-577,15,1009.7,56.4,0
"2019-11-12 04:42:54+00",7.9,12.9,,57.6,-485,-654,5,1009.6,56.4,0
"2019-11-12 04:47:54+00",8.2,12.2,,57.4,-460,-579,8,1009.49,56.4,0
"2019-11-12 04:52:54+00",0.7,1.7,,57.3,-447,-562,12,1009.52,56.3,0
"2019-11-12 04:57:54+00",2.4,11.4,,57.4,-481,-617,14,1009.41,56.3,0
"2019-11-12 05:02:54+00",0.0,0.0,,57.3,-399,-536,7,1009.18,56.3,0
"2019-11-12 05:07:54+00",0.8,2.8,,57.4,-464,-600,9,1009.07,56.3,0
"2019-11-12 05:12:54+00",0.0,0.0,,57.5,-453,-553,13,1009.03,56.4,0
"2019-11-12 05:17:54+00",0.7,2.7,,57.6,-480,-612,7,1009.02,56.5,0
"2019-11-12 05:22:54+00",0.6,0.6,,57.6,-448,-584,11,1008.88,56.5,0
"2019-11-12 05:27:54+00",0.5,1.5,,57.6,-459,-621,7,1008.85,56.6,0
"2019-11-12 05:32:54+00",0.0,0.0,,57.7,-469,-603,4,1008.75,56.6,0
"2019-11-12 05:37:54+00",1.0,5.0,,57.8,-481,-608,10,1008.62,56.7,0
"2019-11-12 05:42:54+00",0.5,1.5,,57.9,-459,-609,18,1008.51,56.8,0
"2019-11-12 05:47:54+00",0.0,0.0,,57.7,-463,-567,16,1008.49,56.8,0
"2019-11-12 05:52:54+00",0.6,0.6,,57.8,-484,-576,17,1008.59,56.7,0
"2019-11-12 05:57:54+00",0.5,1.5,,57.6,-475,-527,16,1008.54,56.6,0
"2019-11-12 06:02:54+00",0.5,1.5,,57.8,-536,-517,27,1008.36,56.7,0
"2019-11-12 06:07:54+00",0.0,0.0,,57.9,-542,-518,38,1008.24,56.8,0
"2019-11-12 06:12:54+00",0.6,1.6,,57.8,-559,-533,23,1008.2,56.8,0
"2019-11-12 06:17:54+00",0.7,2.7,,57.7,-522,-557,16,1008.11,56.7,0
"2019-11-12 06:22:54+00",0.0,0.0,,57.6,-516,-533,10,1008.11,56.6,0
"2019-11-12 06:27:54+00",0.6,0.6,,57.6,-536,-613,0,1007.97,56.6,0
"2019-11-12 06:32:54+00",0.0,0.0,,57.5,-509,-536,8,1007.85,56.5,0
"2019-11-12 06:37:54+00",0.0,0.0,,57.6,-494,-593,7,1007.64,56.5,0
"2019-11-12 06:42:54+00",0.5,1.5,,57.7,-527,-639,5,1007.71,56.6,0
"2019-11-12 06:47:54+00",0.0,0.0,,57.5,-451,-586,4,1007.67,56.5,0
"2019-11-12 06:52:54+00",0.6,0.6,,57.5,-422,-617,0,1007.54,56.5,0
"2019-11-12 06:57:54+00",0.5,1.5,,57.5,-399,-575,2,1007.49,56.5,0
"2019-11-12 07:02:54+00",0.0,0.0,,57.4,-412,-575,7,1007.55,56.4,0
"2019-11-12 07:07:54+00",0.0,0.0,,57.5,-419,-583,11,1007.38,56.5,0
"2019-11-12 07:12:54+00",0.0,0.0,,57.6,-461,-611,1,1007.5,56.5,0
"2019-11-12 07:17:54+00",0.5,1.5,,57.6,-450,-605,7,1007.21,56.6,0
"2019-11-12 07:22:54+00",0.0,0.0,,57.6,-488,-641,5,1007.28,56.6,0
"2019-11-12 07:27:54+00",0.0,0.0,,57.8,-474,-555,7,1007.14,56.7,0
"2019-11-12 07:32:54+00",0.9,4.9,,57.8,-536,-664,30,1006.94,56.7,0
"2019-11-12 07:37:54+00",1.3,6.3,,57.9,-540,-674,16,1006.77,56.8,0
"2019-11-12 07:42:54+00",0.7,2.7,,57.8,-544,-678,-5,1006.7,56.9,0
"2019-11-12 07:47:54+00",0.0,0.0,,57.8,-560,-707,18,1006.64,56.9,0
"2019-11-12 07:52:54+00",0.0,0.0,,57.8,-560,-750,-7,1006.44,56.8,0
"2019-11-12 07:57:54+00",0.0,0.0,,57.6,-476,-598,16,1006.36,56.7,0
"2019-11-12 08:02:54+00",0.9,4.9,,57.6,-538,-723,37,1006.43,56.6,0
"2019-11-12 08:07:54+00",1.1,8.1,,57.4,-502,-743,92,1006.39,56.4,0
"2019-11-12 08:12:54+00",6.9,15.9,,57.4,-465,-917,138,1006.25,56.5,0
"2019-11-12 08:17:54+00",13.7,17.7,,57.3,-472,-847,120,1006.25,56.3,0
"2019-11-12 08:22:54+00",3.0,10.0,,57.1,-439,-738,59,1006.08,56.2,0
"2019-11-12 08:27:54+00",5.1,11.1,,57.2,-461,-864,106,1006.1,56.2,0
"2019-11-12 08:32:54+00",2.1,7.1,,57.2,-369,-1100,292,1006.19,56.3,0
"2019-11-12 08:37:54+00",16.2,19.2,,57.3,-441,-917,140,1006.07,56.4,0
"2019-11-12 08:42:54+00",18.3,23.3,,57.2,5,-1885,708,1006.39,56.5,0
"2019-11-12 08:47:54+00",1.5,7.5,,57.2,-523,-684,59,1005.85,56.5,0
"2019-11-12 08:52:54+00",7.0,14.0,,57.1,-334,-1179,286,1006.18,56.4,0
"2019-11-12 08:57:54+00",14.5,21.5,,57.1,-316,-1115,321,1006.37,56.4,0
"2019-11-12 09:02:54+00",4.2,12.2,,57,-436,-867,166,1006.13,56.3,0
"2019-11-12 09:07:54+00",7.4,11.4,,56.9,-525,-639,56,1006.08,56.2,0
"2019-11-12 09:12:54+00",7.4,14.4,,57.1,-305,-1205,349,1006.2,56.2,0
"2019-11-12 09:17:54+00",12.0,19.0,,57.1,-203,-1389,424,1006.05,56.3,0
"2019-11-12 09:22:54+00",15.6,19.6,,57,-456,-831,183,1005.91,56.2,0
"2019-11-12 09:27:54+00",17.1,21.1,,56.9,-351,-1065,318,1006.15,56.1,0
"2019-11-12 09:32:54+00",5.8,13.8,,56.9,-390,-1007,281,1006.07,56.1,0
"2019-11-12 09:37:54+00",2.3,5.3,,56.8,-473,-888,189,1005.83,56,0
"2019-11-12 09:42:54+00",1.3,5.3,,56.7,-359,-1058,355,1006.23,56,0
"2019-11-12 09:47:54+00",4.4,13.4,,56.6,-529,-611,119,1006.08,55.9,0
"2019-11-12 09:52:54+00",17.1,21.1,,56.6,-408,-951,283,1006.13,55.8,0
"2019-11-12 09:57:54+00",14.9,19.9,,56.4,-491,-689,175,1006.17,55.7,0
"2019-11-12 10:02:54+00",0.9,5.9,,56.3,-554,-501,79,1006.26,55.6,0
"2019-11-12 10:07:54+00",1.1,4.1,,56.2,-493,-681,152,1006.36,55.4,0
"2019-11-12 10:12:54+00",1.0,7.0,,56.1,-504,-607,106,1006.11,55.3,0
"2019-11-12 10:17:54+00",0.0,0.0,,56,-514,-518,61,1006.08,55.3,0
"2019-11-12 10:22:54+00",0.5,1.5,,55.9,-504,-450,52,1006.17,55.2,0
"2019-11-12 10:27:54+00",0.6,0.6,,55.9,-557,-440,57,1006.23,55.1,0
"2019-11-12 10:32:54+00",0.0,0.0,,55.9,-518,-480,53,1006.38,55.1,0
"2019-11-12 10:37:54+00",0.0,0.0,,55.9,-563,-303,40,1006.18,55,0
"2019-11-12 10:42:54+00",0.0,0.0,,55.9,-628,-246,36,1006.14,54.9,0
"2019-11-12 10:47:54+00",0.5,1.5,,56.2,-631,-309,36,1006.49,54.9,0
"2019-11-12 10:52:54+00",1.2,6.2,,56.8,-659,-493,116,1006.35,55.2,0
"2019-11-12 10:57:54+00",12.5,16.5,,56.9,-719,-302,31,1006.35,55.5,0
"2019-11-12 11:02:54+00",0.6,1.6,,56.9,-672,-294,34,1006.31,55.6,0
"2019-11-12 11:07:54+00",4.4,11.4,,56.7,-680,-302,27,1006.43,55.5,0
"2019-11-12 11:12:54+00",6.2,11.2,,56.7,-670,-331,34,1006.44,55.5,0
"2019-11-12 11:17:54+00",0.7,2.7,,56.8,-704,-271,30,1006.71,55.5,0
"2019-11-12 11:22:54+00",1.1,4.1,,56.7,-670,-274,36,1006.64,55.5,0
"2019-11-12 11:27:54+00",0.0,0.0,,56.8,-623,-260,53,1006.63,55.5,0
"2019-11-12 11:32:54+00",0.0,0.0,,56.8,-659,-280,33,1006.71,55.6,0
"2019-11-12 11:37:54+00",0.0,0.0,,56.6,-587,-283,26,1006.65,55.5,0
"2019-11-12 11:42:54+00",0.5,1.5,,56.6,-600,-315,36,1006.74,55.5,0
"2019-11-12 11:47:54+00",0.0,0.0,,56.7,-571,-318,35,1006.67,55.5,0
"2019-11-12 11:52:54+00",0.0,0.0,,56.5,-528,-176,28,1006.6,55.4,0
"2019-11-12 11:57:54+00",0.0,0.0,,56.4,-455,-197,26,1006.51,55.3,0
"2019-11-12 12:02:54+00",0.0,0.0,,56.5,-521,-213,24,1006.46,55.3,0
"2019-11-12 12:07:54+00",0.0,0.0,,56.6,-551,-259,14,1006.86,55.3,0
"2019-11-12 12:12:54+00",0.0,0.0,,56.6,-570,-138,32,1006.45,55.3,0
"2019-11-12 12:17:54+00",0.0,0.0,,56.5,-402,-284,19,1006.77,55.4,0
"2019-11-12 12:22:54+00",0.0,0.0,,56.4,-389,-172,16,1006.54,55.4,0
"2019-11-12 12:27:54+00",0.0,0.0,,56.4,-363,-218,13,1006.5,55.4,0
"2019-11-12 12:32:54+00",0.0,0.0,,56.1,-352,-243,10,1006.58,55.3,0
"2019-11-12 12:37:54+00",0.0,0.0,,56.1,-431,-243,22,1006.94,55.2,0
"2019-11-12 12:42:54+00",0.0,0.0,,56.2,-450,-226,31,1007.12,55.2,0
"2019-11-12 12:47:54+00",0.0,0.0,,56.5,-584,-255,41,1007.42,55.3,0
"2019-11-12 12:52:54+00",0.5,1.5,,56.7,-639,-196,27,1007.51,55.4,0
"2019-11-12 12:57:54+00",0.0,0.0,,56.7,-611,-138,29,1007.69,55.4,0
"2019-11-12 13:02:54+00",4.1,14.1,,56.9,-865,107,67,1008.04,55.5,0
"2019-11-12 13:07:54+00",18.0,20.0,,57,-916,193,65,1007.66,55.8,0
"2019-11-12 13:12:54+00",2.1,9.1,,56.5,-880,109,52,1007.77,55.8,0
"2019-11-12 13:17:54+00",0.0,0.0,,55.5,-797,188,77,1007.87,55.4,0
"2019-11-12 13:22:54+00",0.5,1.5,,55,-836,243,62,1007.8,54.8,0
"2019-11-12 13:27:54+00",0.0,0.0,,54.6,-764,125,46,1007.84,54.3,0
"2019-11-12 13:32:54+00",0.0,0.0,,54.1,-624,-6,28,1008.01,53.9,0
"2019-11-12 13:37:54+00",0.0,0.0,,53.9,-710,-6,27,1008.17,53.6,0
"2019-11-12 13:42:54+00",0.0,0.0,,53.7,-697,64,37,1008.2,53.4,0
"2019-11-12 13:47:54+00",0.0,0.0,,53.4,-650,33,35,1008.29,53.1,0
"2019-11-12 13:52:54+00",0.0,0.0,,53.2,-650,21,57,1008.36,52.9,0
"2019-11-12 13:57:54+00",0.5,1.5,,53,-638,20,25,1008.3,52.7,0
"2019-11-12 14:02:54+00",0.0,0.0,,52.8,-615,-61,24,1008.34,52.5,13.2
"2019-11-12 14:07:54+00",0.0,0.0,,52.8,-696,-13,34,1008.3,52.4,3.2
"2019-11-12 14:12:54+00",0.0,0.0,,52.7,-603,13,36,1008.13,52.4,23.8
"2019-11-12 14:17:54+00",0.0,0.0,,52.7,-668,-35,45,1008.15,52.4,12.9
"2019-11-12 14:22:54+00",0.0,0.0,,52.6,-624,-48,27,1008.25,52.4,17.2
"2019-11-12 14:27:54+00",0.0,0.0,,52.6,-694,23,48,1008.14,52.4,13.6
"2019-11-12 14:32:54+00",0.0,0.0,,52.5,-634,101,34,1008.2,52.4,6
"2019-11-12 14:37:54+00",0.0,0.0,,52.3,-765,188,-33,1008.11,52.3,4.2
"2019-11-12 14:42:54+00",0.0,0.0,,52.2,16780,86,0,1008.22,52.2,-0.1
"2019-11-12 14:47:54+00",0.5,1.5,,52,-723,118,31,1008.04,52.1,2.3
"2019-11-12 15:12:54+00",0.6,1.6,,46,-1571,1736,-575,1009.32,46.1,0
"2019-11-12 15:17:54+00",0.0,0.0,,45.3,-790,227,294,1009.44,45.5,0
"2019-11-12 15:22:54+00",0.0,0.0,,44.8,-936,762,-24,1009.4,44.9,6.5
"2019-11-12 15:27:54+00",0.0,0.0,,44.5,-1085,939,-137,1009.56,44.5,20.5
"2019-11-12 15:32:54+00",0.0,0.0,,44.3,-2167,2735,-1070,1009.77,44.3,7
"2019-11-12 15:37:54+00",0.6,1.6,,44.3,-1853,2312,-821,1009.93,44.2,0.6
"2019-11-12 15:42:54+00",0.0,0.0,,43.9,-1409,1455,-409,1010.04,44,0
"2019-11-12 15:47:54+00",0.5,1.5,,43.7,-2002,2494,-904,1010.06,43.8,0.3
"2019-11-12 15:52:54+00",0.0,0.0,,43.8,-1425,1646,-549,1010.17,43.8,0.4
"2019-11-12 15:57:54+00",0.0,0.0,,43.7,-923,612,67,1010.32,43.7,4.5
"2019-11-12 16:02:54+00",0.0,0.0,,43.6,-1891,2427,-928,1010.32,43.7,10.5
"2019-11-12 16:07:54+00",0.0,0.0,,43.4,-1209,1093,-162,1010.23,43.5,4.4
"2019-11-12 16:12:54+00",0.0,0.0,,43.3,-1339,1711,-620,1010.47,43.4,0
"2019-11-12 16:17:54+00",0.5,1.5,,41.7,-844,1423,-146,1010.67,42.2,0.7
"2019-11-12 16:22:54+00",0.6,1.6,,40.7,-1770,3007,-1059,1010.89,41.1,13.4
"2019-11-12 16:27:54+00",0.0,0.0,,40.2,-1636,3049,-1036,1010.94,40.4,10.2
"2019-11-12 16:32:54+00",0.0,0.0,,39.6,-1206,1929,-525,1010.95,40,8.4
"2019-11-12 16:37:54+00",0.0,0.0,,39.4,-1087,1719,-530,1010.92,39.6,2.7
"2019-11-12 16:42:54+00",2.2,6.2,,38.8,-1935,2864,-1056,1010.84,39,9.2
"2019-11-12 16:47:54+00",1.4,3.4,,38.3,-865,1143,-43,1011.09,38.8,5.3
"2019-11-12 16:52:54+00",0.7,1.7,,37.9,-2628,3924,-1561,1011.3,38.6,1.8
"2019-11-12 16:57:54+00",0.6,0.6,,37.5,-1978,3213,-1203,1011.31,38.2,2.4
"2019-11-12 17:02:54+00",0.7,1.7,,37.5,-1549,2378,-845,1011.4,38,1.2
"2019-11-12 17:07:54+00",1.1,2.1,,36.8,-1704,2479,-923,1011.35,37.3,0.1
"2019-11-12 17:12:54+00",0.8,1.8,,36.5,-2050,2951,-1123,1011.42,36.7,0
"2019-11-12 17:17:54+00",0.6,0.6,,36.2,-1688,2442,-952,1011.33,36.4,0
"2019-11-12 17:22:54+00",0.0,0.0,,36.1,-1886,2598,-1021,1011.37,36.3,0.1
"2019-11-12 17:27:54+00",0.6,0.6,,35.8,-1445,2067,-700,1011.47,36,0.1
"2019-11-12 17:32:54+00",0.0,0.0,,35.8,-2141,3313,-1243,1011.48,35.9,0.1
"2019-11-12 17:37:54+00",0.0,0.0,,35.6,-1352,2078,-718,1011.64,35.7,0
"2019-11-12 17:42:54+00",0.0,0.0,,35.7,-903,1206,-248,1011.69,35.9,0
"2019-11-12 17:47:54+00",0.0,0.0,,35.5,-677,1042,-156,1011.8,35.7,0.1
"2019-11-12 17:52:54+00",0.0,0.0,,35.6,-800,1006,-186,1011.94,35.7,0
"2019-11-12 17:57:54+00",0.0,0.0,,35.5,-633,725,-62,1011.98,35.6,0
"2019-11-12 18:02:54+00",0.0,0.0,,35.5,-570,499,88,1011.93,35.7,0
"2019-11-12 18:07:54+00",0.0,0.0,,35,-572,616,68,1011.97,35.4,0
"2019-11-12 18:12:54+00",0.0,0.0,,34.8,-771,810,-5,1012.04,35.2,0
"2019-11-12 18:17:54+00",0.5,1.5,,34.6,-300,606,57,1012.02,34.8,0
"2019-11-12 18:22:54+00",0.6,0.6,,34,-709,844,87,1012.17,34.2,0
"2019-11-12 18:27:54+00",0.0,0.0,,33.5,-477,651,147,1012.23,33.8,0
"2019-11-12 18:32:54+00",0.5,1.5,,33.4,634,-1290,1240,1012.26,33.6,0
"2019-11-12 18:37:54+00",0.0,0.0,,33.4,245,-576,764,1012.32,33.6,0
"2019-11-12 22:02:54+00",0.0,0.0,,33.5,17325,0,0,1015.02,33.4,-0.1
"2019-11-12 22:07:54+00",0.0,0.0,,33.4,-380,847,37,1015.11,33.3,0
"2019-11-12 22:12:54+00",0.0,0.0,,33.4,-291,863,45,1015.33,33.1,0
"2019-11-12 22:17:54+00",0.0,0.0,,33.3,-269,667,30,1015.39,33.1,0
"2019-11-12 22:22:54+00",0.0,0.0,,33.3,-475,657,50,1015.43,33.1,0
"2019-11-12 22:27:54+00",0.0,0.0,,33.3,-302,662,29,1015.49,33.1,0
"2019-11-12 22:32:54+00",0.0,0.0,,33.3,-257,813,21,1015.9,33,0
"2019-11-12 22:37:54+00",0.0,0.0,,33.2,-314,795,36,1015.62,32.9,0
"2019-11-12 22:42:54+00",0.0,0.0,,33.1,-300,648,42,1015.82,32.9,0
"2019-11-12 22:47:54+00",0.0,0.0,,33.1,-292,637,62,1016.04,32.9,0
"2019-11-12 22:52:54+00",0.0,0.0,,33.1,-251,638,26,1015.99,32.8,0
"2019-11-12 22:57:54+00",0.0,0.0,,33.1,-324,810,38,1016.09,32.8,0
"2019-11-12 23:02:54+00",0.0,0.0,,33.1,-280,685,28,1016.18,32.8,0
"2019-11-12 23:07:54+00",0.0,0.0,,33.1,-220,911,29,1016.08,32.7,0
"2019-11-12 23:12:54+00",0.0,0.0,,33.1,-261,640,38,1016.26,32.7,0
"2019-11-12 23:17:54+00",0.0,0.0,,33.1,-22,351,258,1016.35,32.7,0
